Regional Weather Roundup
Issued by NWS Bismarck, ND

Home | Current Version | Previous Version | Text Only | Print | Product List | Glossary On
Versions: 1 2 3 4 5 6 7 8 9 10 11 12 13 14 15 16 17 18 19 20 21 22 23 24 25 26 27 28 29 30 31 32 33 34 35 36 37 38 39 40 41 42 43 44 45 46 47 48 49 50
000
ASUS43 KBIS 312010
RWRBIS

NWR BROADCAST TEXT
NATIONAL WEATHER SERVICE BISMARCK ND
300 PM CDT MON AUG 31 2015

NOTE: "FAIR" INDICATES FEW OR NO CLOUDS BELOW 12,000 FEET WITH NO
SIGNIFICANT WEATHER AND/OR OBSTRUCTIONS TO VISIBILITY.


CITY           SKY/WX    TMP DP  RH WIND       PRES   REMARKS
WILLISTON      SUNNY     77  37  23 W17       29.86F
MINOT          SUNNY     77  41  27 SW17G26   29.83S
MINOT AFB      SUNNY     79  41  25 W20G25    29.81F
BISMARCK       PTSUNNY   81  49  32 W10       29.88F
DICKINSON      SUNNY     76  36  23 W10G22    29.91F
GARRISON         N/A     76  43  30 W18G25    29.87F
HETTINGER ARPT PTSUNNY   77  41  27 W14       29.95F
JAMESTOWN      CLOUDY    76  58  53 NW12      29.84R
CROSBY         FAIR      75  37  25 W23G29    29.82S
HARVEY         FAIR      77  46  33 W16G22    29.84S
HAZEN          FAIR      75  43  31 W15G22    29.89S
LINTON         FAIR      77  57  50 NW8       29.90R
OAKES            N/A     77  73  88 N8        29.83F
RUGBY          FAIR      75  45  33 W18G29    29.82R
STANLEY        FAIR      73  41  31 W18G28    29.86F
$$

CITY           SKY/WX    TMP DP  RH WIND       PRES   REMARKS
GRAND FORKS    PTSUNNY   82  60  47 N5        29.76F
GRAND FORKS AF PTSUNNY   81  63  54 W8        29.78R
DEVILS LAKE    MOSUNNY   75  52  43 SW14      29.81R
FARGO          MOSUNNY   81  66  60 N10       29.79R
CAVALIER       FAIR      81  55  41 W8        29.75S
GRAFTON        FAIR      81  63  54 W9        29.77R
GWINNER        FAIR      79  64  61 NW13      29.83S
LANGDON        FAIR      81  48  32 W17G28    29.79S
ROLLA            N/A     75  45  33 W17G23    29.81S
WALHALLA       FAIR      81  54  39 MISG      29.75S
$$

CITY           SKY/WX    TMP DP  RH WIND       PRES   REMARKS
ABERDEEN       CLOUDY    79  63  57 N16       29.85R
MOBRIDGE       PTSUNNY   81  59  47 NW8       29.89R
BUFFALO          N/A     76  41  28 W6        29.90F
RAPID CITY     CLOUDY    72  54  53 N9        30.00F
GLASGOW        PTSUNNY   74  39  28 SW16      29.85F
SIDNEY         SUNNY     79  36  21 W16G25    29.86F
WOLF POINT     MOSUNNY   73  41  31 W16G22    29.86F
GLENDIVE       SUNNY     79  37  22 SW15G24   29.90F
MILES CITY     SUNNY     78  41  26 S10       29.90F
BAKER          SUNNY     76  41  28 W13G25    29.95F
$$

CITY           SKY/WX    TMP DP  RH WIND       PRES   REMARKS
BILLINGS       MOSUNNY   77  36  22 S7        29.94F
GREAT FALLS    MOSUNNY   73  34  23 SW29G39   29.90F
REGINA         PTSUNNY   73  43  33 W21G30    29.72S
ESTEVAN        MOSUNNY   75  41  29 W18G30    29.79F
$$




USA.gov is the U.S. government's official web portal to all federal, state and local government web resources and services.